Home > Weather > L'viv > Past weeks

Flag for Ukraine Past Weather in L'viv, Ukraine — Yesterday and Last 2 Weeks

Now
79 °F

Passing clouds.


Feels Like: 79 °F
Forecast: 55 / 82 °F
Wind: 6 mph from Southeast

Location: L'Viv Airport

Current Time: Aug 26, 2016 at 4:58:36 PM

Latest Report: Aug 26, 2016 at 4:00 PM


Visibility: N/A

Pressure: 30.27 "Hg

Humidity: 34%

Dew Point: 48 °F

Location of L'vivLocation

Past Weather in L'viv — Graph

°F

L'viv Temperature Yesterday

Maximum temperature yesterday: 75 °F (at 2:30 PM)
Minimum temperature yesterday: 50 °F (at 7:00 AM)
Average temperature yesterday: 64 °F

High & Low Weather Summary for the Past Weeks

 TemperatureHumidityPressure
High84 °F (Aug 21, 3:00 PM)100% (Aug 12, 6:30 AM)30.30 "Hg (Aug 12, 6:30 AM)
Low43 °F (Aug 13, 6:30 AM)31% (Aug 21, 6:00 PM)29.89 "Hg (Aug 17, 3:00 PM)
Average62 °F77%30.12 "Hg
* Reported Aug 11 3:00 PM — Aug 26 3:30 PM, L'viv, Weather by CustomWeather, © 2016

Note: Actual official high and low records may vary slightly from our data, if they occured in-between our weather recording intervals... More about our weather records

Advertising

L'viv Weather History for the Previous 24 Hours

Scroll right to see more
 ConditionsComfort  
Time TempWeatherWind HumidityBarometerVisibility
3:30 PM
Fri, Aug 26
79 °FSunny.6 mph32%30.27 "Hg10 mi
3:00 PM77 °FPassing clouds.3 mph34%30.27 "HgN/A
2:30 PM77 °FPassing clouds.6 mph39%30.30 "HgN/A
2:00 PM77 °FSunny.3 mph36%30.30 "Hg10 mi
1:30 PM75 °FPassing clouds.6 mph41%30.30 "HgN/A
1:00 PM73 °FSunny.3 mph41%30.30 "Hg10 mi
12:30 PM73 °FSunny.3 mph44%30.30 "Hg10 mi
12:00 PM73 °FSunny.3 mph44%30.30 "Hg10 mi
11:30 AM72 °FPassing clouds.6 mph50%30.30 "HgN/A
11:00 AM72 °FPassing clouds.6 mph47%30.30 "HgN/A
10:30 AM70 °FPassing clouds.6 mph50%30.30 "HgN/A
10:00 AM68 °FPassing clouds.6 mph56%30.30 "HgN/A
9:30 AM66 °FSunny.6 mph60%30.30 "Hg10 mi
9:00 AM64 °FPassing clouds.3 mph64%30.30 "HgN/A
8:30 AM61 °FSunny.1 mph68%30.30 "Hg10 mi
8:00 AM57 °FSunny.No wind88%30.30 "Hg10 mi
7:30 AM54 °FClear.No wind88%30.30 "Hg10 mi
7:00 AM52 °FClear.1 mph94%30.30 "Hg10 mi
6:30 AM50 °FClear.3 mph94%30.30 "Hg10 mi
6:00 AM52 °FClear.3 mph94%30.27 "Hg10 mi
5:30 AM48 °FClear.1 mph94%30.27 "Hg10 mi
5:00 AM48 °FClear.1 mph94%30.27 "Hg10 mi
4:30 AM50 °FClear.No wind94%30.27 "Hg10 mi
4:00 AM50 °FClear.No wind94%30.27 "Hg10 mi
3:30 AM52 °FClear.No wind94%30.27 "Hg10 mi
3:00 AM55 °FClear.1 mph88%30.27 "Hg10 mi
2:30 AM57 °FPassing clouds.3 mph82%30.27 "HgN/A
2:00 AM59 °FClear.6 mph72%30.30 "Hg10 mi
1:30 AM59 °FClear.6 mph72%30.30 "Hg10 mi
1:00 AM59 °FClear.6 mph77%30.30 "Hg10 mi
12:30 AM55 °FClear.3 mph94%30.30 "Hg10 mi
12:00 AM55 °FClear.3 mph94%30.27 "Hg10 mi
11:30 PM
Thu, Aug 25
55 °FClear.1 mph100%30.27 "Hg10 mi
11:00 PM55 °FClear.3 mph94%30.27 "Hg10 mi
10:30 PM57 °FClear.3 mph88%30.27 "Hg10 mi
10:00 PM57 °FClear.1 mph94%30.27 "Hg10 mi
9:30 PM59 °FClear.3 mph88%30.27 "Hg10 mi
9:00 PM61 °FPassing clouds.3 mph83%30.27 "HgN/A
8:30 PM66 °FSunny.3 mph56%30.27 "Hg10 mi
8:00 PM70 °FSunny.6 mph46%30.27 "Hg10 mi
7:30 PM72 °FPassing clouds.6 mph47%30.24 "HgN/A
7:00 PM72 °FPassing clouds.8 mph44%30.24 "HgN/A
6:30 PM75 °FPassing clouds.8 mph39%30.24 "HgN/A
6:00 PM75 °FPassing clouds.8 mph39%30.24 "HgN/A
5:30 PM75 °FScattered clouds.10 mph41%30.27 "HgN/A
5:00 PM75 °FScattered clouds.8 mph41%30.27 "HgN/A
4:30 PM75 °FScattered clouds.6 mph41%30.27 "HgN/A
4:00 PM73 °FPartly sunny.8 mph44%30.27 "HgN/A
Weather by CustomWeather, © 2016

See weather overviewHow to use our weather pages